Time,TemperatureF,DewpointF,PressureIn,WindDirection,WindDirectionDegrees,WindSpeedMPH,WindSpeedGustMPH,Humidity,HourlyPrecipIn,Conditions,Clouds,dailyrainin,SoftwareType,DateUTC
2013-07-21 00:02:00,66.9,58.8,22.01,SW,225,8.0,9.0,75,0.00,,,0.00,meteohub,2013-07-21 05:02:00,
2013-07-21 00:06:00,66.9,58.3,22.00,West,270,4.0,9.0,74,0.00,,,0.00,meteohub,2013-07-21 05:06:00,
2013-07-21 00:12:00,66.7,58.6,22.00,ENE,68,2.0,9.0,75,0.00,,,0.00,meteohub,2013-07-21 05:12:00,
2013-07-21 00:17:00,66.2,58.8,21.99,East,90,6.0,9.0,77,0.01,,,0.01,meteohub,2013-07-21 05:17:00,
2013-07-21 00:22:00,65.5,59.5,21.99,SW,225,0.0,8.0,81,0.02,,,0.02,meteohub,2013-07-21 05:22:00,
2013-07-21 00:27:00,64.9,59.7,21.99,SW,225,1.0,6.0,83,0.05,,,0.05,meteohub,2013-07-21 05:27:00,
2013-07-21 00:32:00,64.0,59.4,21.98,NNE,23,2.0,6.0,85,0.08,,,0.08,meteohub,2013-07-21 05:32:00,
2013-07-21 00:37:00,63.1,59.9,21.99,North,0,2.0,4.0,89,0.11,,,0.11,meteohub,2013-07-21 05:37:00,
2013-07-21 00:42:00,62.6,59.5,21.99,SE,135,2.0,4.0,90,0.15,,,0.15,meteohub,2013-07-21 05:42:00,
2013-07-21 00:47:00,62.2,59.9,21.98,NW,315,4.0,4.0,92,0.22,,,0.22,meteohub,2013-07-21 05:47:00,
2013-07-21 00:52:00,61.9,60.1,21.97,SW,225,10.0,10.0,94,0.24,,,0.24,meteohub,2013-07-21 05:52:00,
2013-07-21 00:57:00,61.5,60.1,21.99,SW,225,8.0,10.0,95,0.27,,,0.27,meteohub,2013-07-21 05:57:00,
2013-07-21 01:02:00,61.0,59.9,22.00,South,180,5.0,10.0,96,0.27,,,0.27,meteohub,2013-07-21 06:02:00,
2013-07-21 01:07:00,61.0,59.9,22.00,North,-999,-999.0,10.0,96,0.27,,,0.27,meteohub,2013-07-21 06:07:00,
2013-07-21 01:12:00,60.6,60.3,22.00,SW,225,5.0,8.0,99,0.27,,,0.27,meteohub,2013-07-21 06:12:00,
2013-07-21 01:17:00,60.4,60.1,22.00,WSW,248,2.0,7.0,99,0.26,,,0.27,meteohub,2013-07-21 06:17:00,
2013-07-21 01:22:00,60.6,60.3,22.00,West,270,1.0,7.0,99,0.25,,,0.27,meteohub,2013-07-21 06:22:00,
2013-07-21 01:27:00,60.6,60.3,22.00,SW,225,4.0,7.0,99,0.21,,,0.27,meteohub,2013-07-21 06:27:00,
2013-07-21 01:32:00,60.8,60.3,22.00,South,180,1.0,4.0,98,0.18,,,0.27,meteohub,2013-07-21 06:32:00,
2013-07-21 01:37:00,60.6,60.3,22.01,ESE,113,4.0,4.0,99,0.15,,,0.27,meteohub,2013-07-21 06:37:00,
2013-07-21 01:42:00,60.6,60.3,22.00,SE,135,0.0,4.0,99,0.11,,,0.27,meteohub,2013-07-21 06:42:00,
2013-07-21 01:47:00,60.8,60.3,22.00,NW,315,1.0,4.0,98,0.05,,,0.27,meteohub,2013-07-21 06:47:00,
2013-07-21 01:52:00,60.8,60.3,22.00,West,270,2.0,4.0,98,0.02,,,0.27,meteohub,2013-07-21 06:52:00,
2013-07-21 01:57:00,60.8,60.3,22.01,NW,315,2.0,3.0,98,0.00,,,0.27,meteohub,2013-07-21 06:57:00,
2013-07-21 02:02:00,60.6,60.3,22.00,SE,135,2.0,2.0,99,0.00,,,0.27,meteohub,2013-07-21 07:02:00,
2013-07-21 02:07:00,60.3,59.9,22.00,NE,45,0.0,2.0,99,0.00,,,0.27,meteohub,2013-07-21 07:07:00,
2013-07-21 02:12:00,60.4,60.1,22.01,SW,225,1.0,2.0,99,0.00,,,0.27,meteohub,2013-07-21 07:12:00,
2013-07-21 02:17:00,60.6,60.3,22.00,SW,225,0.0,2.0,99,0.00,,,0.27,meteohub,2013-07-21 07:17:00,
2013-07-21 02:22:00,60.4,60.1,22.00,SW,225,1.0,2.0,99,0.00,,,0.27,meteohub,2013-07-21 07:22:00,
2013-07-21 02:27:00,60.6,60.3,22.00,SW,225,0.0,2.0,99,0.00,,,0.27,meteohub,2013-07-21 07:27:00,
2013-07-21 02:32:00,60.6,60.3,22.00,NW,315,1.0,2.0,99,0.00,,,0.27,meteohub,2013-07-21 07:32:00,
2013-07-21 02:37:00,60.8,60.3,22.00,SW,225,0.0,2.0,98,0.00,,,0.27,meteohub,2013-07-21 07:37:00,
2013-07-21 02:42:00,60.8,60.3,22.01,SW,225,2.0,2.0,98,0.00,,,0.27,meteohub,2013-07-21 07:42:00,
2013-07-21 02:47:00,60.8,60.3,22.01,SW,225,1.0,2.0,98,0.00,,,0.27,meteohub,2013-07-21 07:47:00,
2013-07-21 02:52:00,60.6,60.3,22.01,West,270,2.0,2.0,99,0.00,,,0.27,meteohub,2013-07-21 07:52:00,
2013-07-21 02:57:00,60.6,60.3,22.01,West,270,2.0,2.0,99,0.00,,,0.27,meteohub,2013-07-21 07:57:00,
2013-07-21 03:02:00,60.6,60.3,22.01,WSW,248,2.0,2.0,99,0.00,,,0.27,meteohub,2013-07-21 08:02:00,
2013-07-21 03:07:00,60.6,60.3,22.01,WSW,248,2.0,2.0,99,0.00,,,0.27,meteohub,2013-07-21 08:07:00,
2013-07-21 03:12:00,60.3,59.9,22.01,West,270,1.0,2.0,99,0.00,,,0.27,meteohub,2013-07-21 08:12:00,
2013-07-21 03:17:00,60.3,59.9,22.01,SW,225,4.0,4.0,99,0.00,,,0.27,meteohub,2013-07-21 08:17:00,
2013-07-21 03:22:00,60.4,60.1,22.01,WNW,293,1.0,4.0,99,0.00,,,0.27,meteohub,2013-07-21 08:22:00,
2013-07-21 03:27:00,60.4,60.1,22.00,SE,135,2.0,4.0,99,0.00,,,0.27,meteohub,2013-07-21 08:27:00,
2013-07-21 03:32:00,60.4,60.1,22.01,South,180,0.0,4.0,99,0.00,,,0.27,meteohub,2013-07-21 08:32:00,
2013-07-21 03:37:00,60.4,60.1,22.01,NW,315,1.0,2.0,99,0.00,,,0.27,meteohub,2013-07-21 08:37:00,
2013-07-21 03:42:00,60.6,60.3,22.01,SE,135,0.0,2.0,99,0.00,,,0.27,meteohub,2013-07-21 08:42:00,
2013-07-21 03:47:00,60.6,60.3,22.00,SE,135,0.0,2.0,99,0.00,,,0.27,meteohub,2013-07-21 08:47:00,
2013-07-21 03:52:00,60.6,60.3,22.00,SW,225,2.0,2.0,99,0.00,,,0.27,meteohub,2013-07-21 08:52:00,
2013-07-21 03:57:00,60.8,60.3,22.01,SW,225,2.0,2.0,98,0.00,,,0.27,meteohub,2013-07-21 08:57:00,
2013-07-21 04:01:00,60.6,60.3,22.01,West,270,2.0,3.0,99,0.00,,,0.27,meteohub,2013-07-21 09:01:00,
2013-07-21 04:06:00,60.6,60.3,22.01,NW,315,2.0,3.0,99,0.00,,,0.27,meteohub,2013-07-21 09:06:00,
2013-07-21 04:12:00,60.6,60.3,22.01,SW,225,0.0,3.0,99,0.00,,,0.27,meteohub,2013-07-21 09:12:00,
2013-07-21 04:17:00,60.4,60.1,22.01,South,180,0.0,2.0,99,0.00,,,0.27,meteohub,2013-07-21 09:17:00,
2013-07-21 04:22:00,60.1,59.7,22.01,West,270,0.0,2.0,99,0.00,,,0.27,meteohub,2013-07-21 09:22:00,
2013-07-21 04:27:00,60.1,59.7,22.01,SW,225,0.0,1.0,99,0.00,,,0.27,meteohub,2013-07-21 09:27:00,
2013-07-21 04:32:00,60.1,59.7,22.01,SE,135,0.0,1.0,99,0.00,,,0.27,meteohub,2013-07-21 09:32:00,
2013-07-21 04:37:00,59.9,59.5,22.01,East,90,2.0,0.0,99,0.00,,,0.27,meteohub,2013-07-21 09:37:00,
2013-07-21 04:42:00,60.1,59.7,22.01,SW,225,2.0,2.0,99,0.00,,,0.27,meteohub,2013-07-21 09:42:00,
2013-07-21 04:47:00,60.1,59.7,22.01,ESE,113,4.0,4.0,99,0.00,,,0.27,meteohub,2013-07-21 09:47:00,
2013-07-21 04:52:00,60.3,59.9,22.00,East,90,1.0,4.0,99,0.00,,,0.27,meteohub,2013-07-21 09:52:00,
2013-07-21 04:57:00,60.3,59.9,21.99,NE,45,0.0,4.0,99,0.00,,,0.27,meteohub,2013-07-21 09:57:00,
2013-07-21 05:02:00,60.4,60.1,22.00,West,270,2.0,4.0,99,0.00,,,0.27,meteohub,2013-07-21 10:02:00,
2013-07-21 05:07:00,60.4,60.1,21.99,West,270,2.0,4.0,99,0.00,,,0.27,meteohub,2013-07-21 10:07:00,
2013-07-21 05:12:00,60.4,60.1,22.00,SE,135,3.0,3.0,99,0.00,,,0.27,meteohub,2013-07-21 10:12:00,
2013-07-21 05:17:00,60.3,59.9,22.00,NE,45,2.0,3.0,99,0.00,,,0.27,meteohub,2013-07-21 10:17:00,
2013-07-21 05:22:00,60.3,59.9,22.00,West,270,0.0,5.0,99,0.00,,,0.27,meteohub,2013-07-21 10:22:00,
2013-07-21 05:27:00,60.1,59.7,22.00,North,0,0.0,5.0,99,0.00,,,0.27,meteohub,2013-07-21 10:27:00,
2013-07-21 05:32:00,60.1,59.7,22.00,SW,225,2.0,5.0,99,0.00,,,0.27,meteohub,2013-07-21 10:32:00,
2013-07-21 05:37:00,59.9,59.5,22.00,East,90,2.0,3.0,99,0.00,,,0.27,meteohub,2013-07-21 10:37:00,
2013-07-21 05:42:00,59.7,59.4,22.01,West,270,2.0,3.0,99,0.00,,,0.27,meteohub,2013-07-21 10:42:00,
2013-07-21 05:47:00,59.7,59.4,22.00,West,270,2.0,4.0,99,0.00,,,0.27,meteohub,2013-07-21 10:47:00,
2013-07-21 05:52:00,59.7,59.4,22.00,NW,315,2.0,4.0,99,0.00,,,0.27,meteohub,2013-07-21 10:52:00,
2013-07-21 05:57:00,59.5,59.2,22.00,North,0,1.0,4.0,99,0.00,,,0.27,meteohub,2013-07-21 10:57:00,
2013-07-21 06:02:00,59.5,59.2,22.00,West,270,2.0,3.0,99,0.00,,,0.27,meteohub,2013-07-21 11:02:00,
2013-07-21 06:06:00,59.5,59.2,22.00,South,180,1.0,3.0,99,0.00,,,0.27,meteohub,2013-07-21 11:06:00,
2013-07-21 06:12:00,59.7,59.4,21.99,West,270,2.0,3.0,99,0.00,,,0.27,meteohub,2013-07-21 11:12:00,
2013-07-21 06:17:00,59.7,59.4,21.99,East,90,1.0,3.0,99,0.00,,,0.27,meteohub,2013-07-21 11:17:00,
2013-07-21 06:22:00,59.9,59.5,21.99,SW,225,1.0,2.0,99,0.00,,,0.27,meteohub,2013-07-21 11:22:00,
2013-07-21 06:27:00,59.9,59.5,22.00,SE,135,1.0,2.0,99,0.00,,,0.27,meteohub,2013-07-21 11:27:00,
2013-07-21 06:32:00,60.1,59.7,22.00,South,180,2.0,2.0,99,0.00,,,0.27,meteohub,2013-07-21 11:32:00,
2013-07-21 06:37:00,60.1,59.7,22.00,East,90,1.0,2.0,99,0.00,,,0.27,meteohub,2013-07-21 11:37:00,
2013-07-21 06:42:00,60.1,59.7,22.00,SE,135,2.0,2.0,99,0.00,,,0.27,meteohub,2013-07-21 11:42:00,
2013-07-21 06:47:00,60.1,59.7,22.00,West,270,1.0,2.0,99,0.00,,,0.27,meteohub,2013-07-21 11:47:00,
2013-07-21 06:52:00,60.4,60.1,22.00,South,180,0.0,2.0,99,0.00,,,0.27,meteohub,2013-07-21 11:52:00,
2013-07-21 06:57:00,61.0,60.4,21.99,NW,315,1.0,2.0,98,0.00,,,0.27,meteohub,2013-07-21 11:57:00,
2013-07-21 07:02:00,61.2,60.6,21.99,SW,225,2.0,3.0,98,0.00,,,0.27,meteohub,2013-07-21 12:02:00,
2013-07-21 07:07:00,61.2,60.6,21.99,SW,225,2.0,3.0,98,0.00,,,0.27,meteohub,2013-07-21 12:07:00,
2013-07-21 07:12:00,62.4,61.5,21.99,West,270,2.0,3.0,97,0.00,,,0.27,meteohub,2013-07-21 12:12:00,
2013-07-21 07:17:00,63.0,61.5,21.99,SW,225,2.0,4.0,95,0.00,,,0.27,meteohub,2013-07-21 12:17:00,
2013-07-21 07:22:00,63.5,62.1,21.99,South,180,2.0,4.0,95,0.00,,,0.27,meteohub,2013-07-21 12:22:00,
2013-07-21 07:27:00,63.3,61.5,21.99,West,270,1.0,4.0,94,0.00,,,0.27,meteohub,2013-07-21 12:27:00,
2013-07-21 07:32:00,63.1,60.8,22.00,West,270,2.0,3.0,92,0.00,,,0.27,meteohub,2013-07-21 12:32:00,
2013-07-21 07:37:00,62.6,60.3,21.99,SW,225,4.0,4.0,92,0.01,,,0.28,meteohub,2013-07-21 12:37:00,
2013-07-21 07:42:00,62.4,60.1,21.99,West,270,1.0,4.0,92,0.01,,,0.28,meteohub,2013-07-21 12:42:00,
2013-07-21 07:47:00,62.6,59.9,21.99,SE,135,2.0,4.0,91,0.01,,,0.28,meteohub,2013-07-21 12:47:00,
2013-07-21 07:52:00,63.0,60.3,21.99,West,270,0.0,4.0,91,0.01,,,0.28,meteohub,2013-07-21 12:52:00,
2013-07-21 07:57:00,63.3,60.6,22.00,SW,225,2.0,2.0,91,0.01,,,0.28,meteohub,2013-07-21 12:57:00,
2013-07-21 08:02:00,64.0,61.3,22.00,West,270,1.0,2.0,91,0.01,,,0.28,meteohub,2013-07-21 13:02:00,
2013-07-21 08:07:00,65.8,63.7,21.99,South,180,2.0,3.0,93,0.01,,,0.28,meteohub,2013-07-21 13:07:00,
2013-07-21 08:12:00,66.7,63.3,22.00,West,270,2.0,3.0,89,0.01,,,0.28,meteohub,2013-07-21 13:12:00,
2013-07-21 08:17:00,66.9,62.6,21.99,SW,225,3.0,4.0,86,0.01,,,0.28,meteohub,2013-07-21 13:17:00,
2013-07-21 08:22:00,67.3,62.6,21.99,South,180,2.0,4.0,85,0.01,,,0.28,meteohub,2013-07-21 13:22:00,
2013-07-21 08:27:00,68.0,62.2,21.99,East,90,4.0,4.0,82,0.01,,,0.28,meteohub,2013-07-21 13:27:00,
2013-07-21 08:32:00,67.3,61.5,22.00,WNW,293,5.0,5.0,82,0.01,,,0.28,meteohub,2013-07-21 13:32:00,
2013-07-21 08:36:00,67.1,60.4,22.00,SW,225,3.0,8.0,79,0.00,,,0.28,meteohub,2013-07-21 13:36:00,
2013-07-21 08:42:00,68.0,60.8,22.00,SW,225,2.0,8.0,78,0.00,,,0.28,meteohub,2013-07-21 13:42:00,
2013-07-21 08:47:00,68.9,60.6,22.00,SW,225,8.0,8.0,75,0.00,,,0.28,meteohub,2013-07-21 13:47:00,
2013-07-21 08:52:00,68.2,59.9,21.99,NW,315,7.0,9.0,75,0.00,,,0.28,meteohub,2013-07-21 13:52:00,
2013-07-21 08:57:00,68.2,59.9,22.00,South,180,3.0,9.0,75,0.00,,,0.28,meteohub,2013-07-21 13:57:00,
2013-07-21 09:02:00,68.7,59.7,22.00,West,270,8.0,9.0,73,0.00,,,0.28,meteohub,2013-07-21 14:02:00,
2013-07-21 09:07:00,68.0,59.0,22.00,West,270,6.0,9.0,73,0.00,,,0.28,meteohub,2013-07-21 14:07:00,
2013-07-21 09:11:00,68.7,59.7,22.00,West,270,7.0,9.0,73,0.00,,,0.28,meteohub,2013-07-21 14:11:00,
2013-07-21 09:16:00,68.4,59.4,22.00,SW,225,6.0,10.0,73,0.00,,,0.28,meteohub,2013-07-21 14:16:00,
2013-07-21 09:22:00,68.7,59.0,22.00,SW,225,7.0,11.0,71,0.00,,,0.28,meteohub,2013-07-21 14:22:00,
2013-07-21 09:27:00,68.9,59.5,22.00,SW,225,5.0,11.0,72,0.00,,,0.28,meteohub,2013-07-21 14:27:00,
2013-07-21 09:32:00,69.1,60.1,22.00,West,270,3.0,11.0,73,0.00,,,0.28,meteohub,2013-07-21 14:32:00,
2013-07-21 09:37:00,69.1,59.4,22.00,West,270,4.0,9.0,71,0.00,,,0.28,meteohub,2013-07-21 14:37:00,
2013-07-21 09:42:00,68.7,59.4,22.00,West,270,2.0,6.0,72,0.00,,,0.28,meteohub,2013-07-21 14:42:00,
2013-07-21 09:47:00,68.7,59.7,22.00,West,270,6.0,7.0,73,0.00,,,0.28,meteohub,2013-07-21 14:47:00,
2013-07-21 09:51:00,69.4,60.1,21.99,West,270,4.0,7.0,72,0.00,,,0.28,meteohub,2013-07-21 14:51:00,
2013-07-21 09:57:00,68.9,59.2,22.00,West,270,7.0,7.0,71,0.00,,,0.28,meteohub,2013-07-21 14:57:00,
2013-07-21 10:02:00,69.3,59.9,22.00,SW,225,4.0,8.0,72,0.00,,,0.28,meteohub,2013-07-21 15:02:00,
2013-07-21 10:07:00,69.4,59.2,21.99,West,270,4.0,8.0,70,0.00,,,0.28,meteohub,2013-07-21 15:07:00,
2013-07-21 10:12:00,69.8,59.2,21.99,South,180,4.0,7.0,69,0.00,,,0.28,meteohub,2013-07-21 15:12:00,
2013-07-21 10:17:00,70.2,59.5,21.99,North,0,4.0,6.0,69,0.00,,,0.28,meteohub,2013-07-21 15:17:00,
2013-07-21 10:22:00,70.9,59.7,22.00,West,270,4.0,6.0,68,0.00,,,0.28,meteohub,2013-07-21 15:22:00,
2013-07-21 10:26:00,71.1,59.9,22.00,SE,135,2.0,6.0,68,0.00,,,0.28,meteohub,2013-07-21 15:26:00,
2013-07-21 10:32:00,72.3,59.5,21.99,SW,225,2.0,4.0,64,0.00,,,0.28,meteohub,2013-07-21 15:32:00,
2013-07-21 10:37:00,71.6,58.8,21.99,NW,315,4.0,6.0,64,0.00,,,0.28,meteohub,2013-07-21 15:37:00,
2013-07-21 10:42:00,71.6,58.3,22.00,West,270,5.0,6.0,63,0.00,,,0.28,meteohub,2013-07-21 15:42:00,
2013-07-21 10:46:00,71.4,59.0,22.00,SW,225,8.0,8.0,65,0.00,,,0.28,meteohub,2013-07-21 15:46:00,
2013-07-21 10:51:00,71.2,58.5,22.00,SW,225,6.0,9.0,64,0.00,,,0.28,meteohub,2013-07-21 15:51:00,
2013-07-21 10:57:00,70.7,58.3,21.99,West,270,7.0,9.0,65,0.00,,,0.28,meteohub,2013-07-21 15:57:00,
2013-07-21 11:02:00,70.5,58.6,22.00,West,270,5.0,9.0,66,0.00,,,0.28,meteohub,2013-07-21 16:02:00,
2013-07-21 11:07:00,70.2,58.6,22.00,West,270,5.0,9.0,67,0.00,,,0.28,meteohub,2013-07-21 16:07:00,
2013-07-21 11:12:00,70.0,59.0,22.00,SW,225,6.0,9.0,68,0.00,,,0.28,meteohub,2013-07-21 16:12:00,
2013-07-21 11:17:00,70.2,58.6,22.00,NW,315,4.0,8.0,67,0.00,,,0.28,meteohub,2013-07-21 16:17:00,
2013-07-21 11:22:00,70.9,59.7,22.00,South,180,4.0,8.0,68,0.00,,,0.28,meteohub,2013-07-21 16:22:00,
2013-07-21 11:27:00,70.7,59.2,22.00,South,180,2.0,6.0,67,0.00,,,0.28,meteohub,2013-07-21 16:27:00,
2013-07-21 11:32:00,71.6,59.7,22.00,WNW,293,2.0,8.0,66,0.00,,,0.28,meteohub,2013-07-21 16:32:00,
2013-07-21 11:37:00,71.8,59.0,22.00,North,0,2.0,8.0,64,0.00,,,0.28,meteohub,2013-07-21 16:37:00,
2013-07-21 11:42:00,71.4,59.0,22.00,SW,225,4.0,7.0,65,0.00,,,0.28,meteohub,2013-07-21 16:42:00,
2013-07-21 11:47:00,70.9,59.4,22.00,NE,45,3.0,7.0,67,0.00,,,0.28,meteohub,2013-07-21 16:47:00,
2013-07-21 11:52:00,70.7,59.2,22.01,NW,315,3.0,7.0,67,0.00,,,0.28,meteohub,2013-07-21 16:52:00,
2013-07-21 11:57:00,71.1,59.9,22.01,SW,225,2.0,4.0,68,0.00,,,0.28,meteohub,2013-07-21 16:57:00,
2013-07-21 12:02:00,71.2,59.7,22.01,South,180,3.0,4.0,67,0.00,,,0.28,meteohub,2013-07-21 17:02:00,
2013-07-21 12:07:00,71.8,59.7,22.01,West,270,4.0,4.0,66,0.00,,,0.28,meteohub,2013-07-21 17:07:00,
2013-07-21 12:12:00,71.6,59.7,22.01,SW,225,4.0,5.0,66,0.00,,,0.28,meteohub,2013-07-21 17:12:00,
2013-07-21 12:17:00,71.8,59.0,22.01,SW,225,4.0,8.0,64,0.00,,,0.28,meteohub,2013-07-21 17:17:00,
2013-07-21 12:22:00,72.7,60.6,22.02,North,0,3.0,9.0,66,0.00,,,0.28,meteohub,2013-07-21 17:22:00,
2013-07-21 12:27:00,74.1,61.5,22.02,WNW,293,3.0,9.0,65,0.00,,,0.28,meteohub,2013-07-21 17:27:00,
2013-07-21 12:32:00,75.2,60.8,22.01,SW,225,3.0,9.0,61,0.00,,,0.28,meteohub,2013-07-21 17:32:00,
2013-07-21 12:37:00,73.8,60.4,22.02,SW,225,4.0,6.0,63,0.00,,,0.28,meteohub,2013-07-21 17:37:00,
2013-07-21 12:42:00,72.9,59.9,22.01,SE,135,4.0,6.0,64,0.00,,,0.28,meteohub,2013-07-21 17:42:00,
2013-07-21 12:47:00,72.5,60.1,22.01,East,90,2.0,6.0,65,0.00,,,0.28,meteohub,2013-07-21 17:47:00,
2013-07-21 12:52:00,72.1,59.7,22.01,South,180,2.0,5.0,65,0.00,,,0.28,meteohub,2013-07-21 17:52:00,
2013-07-21 12:57:00,71.6,60.4,22.01,West,270,4.0,5.0,68,0.00,,,0.28,meteohub,2013-07-21 17:57:00,
2013-07-21 13:02:00,70.9,60.6,22.01,SE,135,2.0,5.0,70,0.00,,,0.28,meteohub,2013-07-21 18:02:00,
2013-07-21 13:06:00,70.5,60.6,22.01,SW,225,2.0,5.0,71,0.00,,,0.28,meteohub,2013-07-21 18:06:00,
2013-07-21 13:11:00,69.8,60.4,22.01,East,90,2.0,4.0,72,0.01,,,0.30,meteohub,2013-07-21 18:11:00,
2013-07-21 13:17:00,68.5,61.7,21.99,East,90,4.0,4.0,79,0.05,,,0.33,meteohub,2013-07-21 18:17:00,
2013-07-21 13:22:00,66.7,61.7,21.98,NE,45,12.0,12.0,84,0.06,,,0.34,meteohub,2013-07-21 18:22:00,
2013-07-21 13:27:00,65.3,61.3,21.99,East,90,12.0,19.0,87,0.11,,,0.39,meteohub,2013-07-21 18:27:00,
2013-07-21 13:32:00,64.6,61.3,21.99,NE,45,5.0,19.0,89,0.13,,,0.41,meteohub,2013-07-21 18:32:00,
2013-07-21 13:37:00,64.6,61.3,21.98,NE,45,5.0,19.0,89,0.14,,,0.43,meteohub,2013-07-21 18:37:00,
2013-07-21 13:42:00,63.7,61.3,21.98,SW,225,2.0,12.0,92,0.17,,,0.45,meteohub,2013-07-21 18:42:00,
2013-07-21 13:47:00,63.5,61.5,22.00,SE,135,2.0,11.0,93,0.18,,,0.46,meteohub,2013-07-21 18:47:00,
2013-07-21 13:52:00,63.3,61.5,22.01,SW,225,3.0,5.0,94,0.26,,,0.54,meteohub,2013-07-21 18:52:00,
2013-07-21 13:57:00,63.1,61.3,22.01,East,90,2.0,4.0,94,0.30,,,0.57,meteohub,2013-07-21 18:57:00,
2013-07-21 14:02:00,63.3,61.9,22.02,NE,45,2.0,4.0,95,0.30,,,0.58,meteohub,2013-07-21 19:02:00,
2013-07-21 14:07:00,63.3,61.9,22.02,West,270,3.0,4.0,95,0.30,,,0.58,meteohub,2013-07-21 19:07:00,
2013-07-21 14:12:00,63.3,62.2,22.02,SE,135,2.0,4.0,96,0.27,,,0.58,meteohub,2013-07-21 19:12:00,
2013-07-21 14:17:00,63.3,62.2,22.02,West,270,2.0,4.0,96,0.24,,,0.58,meteohub,2013-07-21 19:17:00,
2013-07-21 14:22:00,63.3,62.2,22.01,NE,45,1.0,4.0,96,0.22,,,0.58,meteohub,2013-07-21 19:22:00,
2013-07-21 14:27:00,63.3,62.4,22.00,NE,45,7.0,7.0,97,0.18,,,0.58,meteohub,2013-07-21 19:27:00,
2013-07-21 14:32:00,63.3,62.4,22.01,East,90,8.0,8.0,97,0.17,,,0.58,meteohub,2013-07-21 19:32:00,
2013-07-21 14:37:00,63.3,62.4,22.01,NE,45,6.0,11.0,97,0.15,,,0.58,meteohub,2013-07-21 19:37:00,
2013-07-21 14:42:00,63.1,62.2,22.02,East,90,6.0,11.0,97,0.13,,,0.58,meteohub,2013-07-21 19:42:00,
2013-07-21 14:47:00,63.0,62.1,21.99,West,270,4.0,11.0,97,0.08,,,0.59,meteohub,2013-07-21 19:47:00,
2013-07-21 14:52:00,63.0,62.1,21.98,SE,135,1.0,8.0,97,0.06,,,0.60,meteohub,2013-07-21 19:52:00,
2013-07-21 14:57:00,62.8,61.9,22.00,SE,135,3.0,8.0,97,0.04,,,0.61,meteohub,2013-07-21 19:57:00,
2013-07-21 15:02:00,62.8,61.9,22.00,West,270,3.0,8.0,97,0.09,,,0.67,meteohub,2013-07-21 20:02:00,
2013-07-21 15:06:00,62.8,61.9,22.01,West,270,3.0,8.0,97,0.11,,,0.69,meteohub,2013-07-21 20:06:00,
2013-07-21 15:11:00,62.6,61.7,22.02,East,90,4.0,4.0,97,0.13,,,0.71,meteohub,2013-07-21 20:11:00,
2013-07-21 15:17:00,62.6,61.7,22.02,East,90,4.0,4.0,97,0.14,,,0.72,meteohub,2013-07-21 20:17:00,
2013-07-21 15:22:00,62.6,61.7,22.02,SE,135,0.0,4.0,97,0.14,,,0.72,meteohub,2013-07-21 20:22:00,
2013-07-21 15:27:00,62.8,61.9,22.03,SW,225,0.0,4.0,97,0.15,,,0.73,meteohub,2013-07-21 20:27:00,
2013-07-21 15:32:00,62.6,61.7,22.03,East,90,2.0,4.0,97,0.17,,,0.74,meteohub,2013-07-21 20:32:00,
2013-07-21 15:37:00,62.6,61.7,22.03,East,90,4.0,4.0,97,0.18,,,0.76,meteohub,2013-07-21 20:37:00,
2013-07-21 15:42:00,62.6,61.7,22.04,SE,135,3.0,4.0,97,0.19,,,0.77,meteohub,2013-07-21 20:42:00,
2013-07-21 15:47:00,62.6,61.7,22.04,SE,135,2.0,5.0,97,0.19,,,0.78,meteohub,2013-07-21 20:47:00,
2013-07-21 15:52:00,62.6,61.7,22.03,East,90,3.0,5.0,97,0.17,,,0.78,meteohub,2013-07-21 20:52:00,
2013-07-21 15:57:00,62.6,61.7,22.02,West,270,2.0,5.0,97,0.17,,,0.79,meteohub,2013-07-21 20:57:00,
2013-07-21 16:02:00,62.6,61.7,22.02,NW,315,2.0,4.0,97,0.12,,,0.80,meteohub,2013-07-21 21:02:00,
2013-07-21 16:07:00,62.6,61.7,22.03,SW,225,0.0,3.0,97,0.12,,,0.80,meteohub,2013-07-21 21:07:00,
2013-07-21 16:12:00,62.8,61.9,22.04,SW,225,0.0,2.0,97,0.09,,,0.81,meteohub,2013-07-21 21:12:00,
2013-07-21 16:17:00,63.1,62.2,22.04,East,90,2.0,2.0,97,0.09,,,0.81,meteohub,2013-07-21 21:17:00,
2013-07-21 16:22:00,63.3,62.4,22.05,SW,225,2.0,2.0,97,0.09,,,0.83,meteohub,2013-07-21 21:22:00,
2013-07-21 16:27:00,63.7,62.8,22.05,South,180,0.0,2.0,97,0.09,,,0.84,meteohub,2013-07-21 21:27:00,
2013-07-21 16:32:00,63.7,62.8,22.05,West,270,4.0,4.0,97,0.11,,,0.85,meteohub,2013-07-21 21:32:00,
2013-07-21 16:37:00,63.7,62.8,22.06,SW,225,2.0,4.0,97,0.09,,,0.85,meteohub,2013-07-21 21:37:00,
2013-07-21 16:42:00,63.7,62.8,22.06,SW,225,3.0,4.0,97,0.08,,,0.85,meteohub,2013-07-21 21:42:00,
2013-07-21 16:47:00,63.7,62.8,22.06,West,270,3.0,4.0,97,0.07,,,0.85,meteohub,2013-07-21 21:47:00,
2013-07-21 16:52:00,63.9,63.0,22.08,West,270,8.0,8.0,97,0.07,,,0.86,meteohub,2013-07-21 21:52:00,
2013-07-21 16:57:00,63.9,63.0,22.07,NW,315,8.0,11.0,97,0.07,,,0.86,meteohub,2013-07-21 21:57:00,
2013-07-21 17:02:00,63.9,63.0,22.07,West,270,8.0,11.0,97,0.06,,,0.86,meteohub,2013-07-21 22:02:00,
2013-07-21 17:07:00,63.9,63.0,22.06,West,270,13.0,13.0,97,0.06,,,0.86,meteohub,2013-07-21 22:07:00,
2013-07-21 17:12:00,64.0,63.1,22.08,West,270,11.0,13.0,97,0.05,,,0.86,meteohub,2013-07-21 22:12:00,
2013-07-21 17:17:00,64.0,63.1,22.07,SW,225,13.0,13.0,97,0.05,,,0.86,meteohub,2013-07-21 22:17:00,
2013-07-21 17:22:00,64.0,63.1,22.07,NW,315,14.0,15.0,97,0.02,,,0.86,meteohub,2013-07-21 22:22:00,
2013-07-21 17:27:00,64.2,63.3,22.07,NW,315,8.0,15.0,97,0.02,,,0.86,meteohub,2013-07-21 22:27:00,
2013-07-21 17:32:00,64.4,64.0,22.07,South,180,10.0,15.0,99,0.01,,,0.86,meteohub,2013-07-21 22:32:00,
2013-07-21 17:36:00,64.6,64.2,22.06,West,270,8.0,15.0,99,0.01,,,0.86,meteohub,2013-07-21 22:36:00,
2013-07-21 17:41:00,64.9,64.6,22.06,South,180,2.0,11.0,99,0.01,,,0.86,meteohub,2013-07-21 22:41:00,
2013-07-21 17:47:00,65.5,65.1,22.06,West,270,2.0,10.0,99,0.01,,,0.86,meteohub,2013-07-21 22:47:00,
2013-07-21 17:52:00,66.0,65.7,22.07,West,270,2.0,8.0,99,0.00,,,0.86,meteohub,2013-07-21 22:52:00,
2013-07-21 17:57:00,66.2,65.8,22.07,SW,225,4.0,4.0,99,0.00,,,0.86,meteohub,2013-07-21 22:57:00,
2013-07-21 18:02:00,66.6,66.2,22.07,South,180,1.0,4.0,99,0.00,,,0.86,meteohub,2013-07-21 23:02:00,
2013-07-21 18:07:00,66.7,66.4,22.07,SW,225,2.0,4.0,99,0.00,,,0.86,meteohub,2013-07-21 23:07:00,
2013-07-21 18:12:00,66.7,66.4,22.07,SE,135,4.0,4.0,99,0.00,,,0.86,meteohub,2013-07-21 23:12:00,
2013-07-21 18:16:00,66.9,66.6,22.07,North,0,0.0,4.0,99,0.00,,,0.86,meteohub,2013-07-21 23:16:00,
2013-07-21 18:22:00,67.1,66.7,22.07,SE,135,0.0,4.0,99,0.00,,,0.86,meteohub,2013-07-21 23:22:00,
2013-07-21 18:27:00,67.1,66.7,22.07,NW,315,3.0,4.0,99,0.00,,,0.86,meteohub,2013-07-21 23:27:00,
2013-07-21 18:32:00,66.6,66.2,22.07,SW,225,0.0,4.0,99,0.00,,,0.86,meteohub,2013-07-21 23:32:00,
2013-07-21 18:37:00,66.6,66.2,22.06,South,180,1.0,4.0,99,0.00,,,0.86,meteohub,2013-07-21 23:37:00,
2013-07-21 18:42:00,66.6,66.2,22.07,South,180,3.0,4.0,99,0.00,,,0.86,meteohub,2013-07-21 23:42:00,
2013-07-21 18:47:00,66.4,66.0,22.07,SE,135,3.0,4.0,99,0.00,,,0.86,meteohub,2013-07-21 23:47:00,
2013-07-21 18:52:00,66.2,65.8,22.06,SW,225,4.0,4.0,99,0.00,,,0.86,meteohub,2013-07-21 23:52:00,
2013-07-21 18:57:00,66.2,65.8,22.06,NW,315,2.0,4.0,99,0.00,,,0.86,meteohub,2013-07-21 23:57:00,
2013-07-21 19:02:00,66.2,65.8,22.06,SW,225,2.0,4.0,99,0.00,,,0.86,meteohub,2013-07-22 00:02:00,
2013-07-21 19:07:00,66.4,66.0,22.06,East,90,2.0,4.0,99,0.00,,,0.00,meteohub,2013-07-22 00:07:00,
2013-07-21 19:12:00,66.4,66.0,22.06,West,270,2.0,4.0,99,0.00,,,0.00,meteohub,2013-07-22 00:12:00,
2013-07-21 19:17:00,66.4,66.0,22.06,SE,135,2.0,3.0,99,0.00,,,0.00,meteohub,2013-07-22 00:17:00,
2013-07-21 19:22:00,66.4,66.0,22.06,SW,225,1.0,2.0,99,0.00,,,0.00,meteohub,2013-07-22 00:22:00,
2013-07-21 19:27:00,66.4,66.0,22.06,SE,135,0.0,2.0,99,0.00,,,0.00,meteohub,2013-07-22 00:27:00,
2013-07-21 19:32:00,66.4,65.8,22.05,SE,135,0.0,2.0,98,0.00,,,0.00,meteohub,2013-07-22 00:32:00,
2013-07-21 19:37:00,66.4,65.8,22.05,SE,135,2.0,2.0,98,0.00,,,0.00,meteohub,2013-07-22 00:37:00,
2013-07-21 19:42:00,66.2,65.7,22.05,SW,225,2.0,2.0,98,0.00,,,0.00,meteohub,2013-07-22 00:42:00,
2013-07-21 19:47:00,66.0,65.7,22.05,SW,225,0.0,2.0,99,0.00,,,0.00,meteohub,2013-07-22 00:47:00,
2013-07-21 19:52:00,65.8,65.5,22.05,SE,135,0.0,2.0,99,0.00,,,0.00,meteohub,2013-07-22 00:52:00,
2013-07-21 19:57:00,65.8,65.5,22.06,West,270,0.0,2.0,99,0.00,,,0.00,meteohub,2013-07-22 00:57:00,
2013-07-21 20:02:00,65.8,65.5,22.05,West,270,0.0,0.0,99,0.00,,,0.00,meteohub,2013-07-22 01:02:00,
2013-07-21 20:07:00,65.7,65.3,22.06,SE,135,0.0,0.0,99,0.00,,,0.00,meteohub,2013-07-22 01:07:00,
2013-07-21 20:11:00,65.7,65.3,22.05,SW,225,0.0,0.0,99,0.00,,,0.00,meteohub,2013-07-22 01:11:00,
2013-07-21 20:17:00,65.7,65.3,22.06,West,270,0.0,0.0,99,0.00,,,0.00,meteohub,2013-07-22 01:17:00,
2013-07-21 20:22:00,65.5,65.1,22.06,West,270,0.0,0.0,99,0.00,,,0.00,meteohub,2013-07-22 01:22:00,
2013-07-21 20:27:00,65.5,65.1,22.06,South,180,0.0,0.0,99,0.00,,,0.00,meteohub,2013-07-22 01:27:00,
2013-07-21 20:32:00,65.5,65.1,22.06,SW,225,0.0,0.0,99,0.00,,,0.00,meteohub,2013-07-22 01:32:00,
2013-07-21 20:37:00,65.5,65.1,22.06,West,270,0.0,0.0,99,0.00,,,0.00,meteohub,2013-07-22 01:37:00,
2013-07-21 20:42:00,65.5,65.1,22.06,SE,135,0.0,0.0,99,0.00,,,0.00,meteohub,2013-07-22 01:42:00,
2013-07-21 20:47:00,65.3,64.9,22.06,NW,315,0.0,0.0,99,0.00,,,0.00,meteohub,2013-07-22 01:47:00,
2013-07-21 20:51:00,65.3,64.9,22.06,West,270,0.0,0.0,99,0.00,,,0.00,meteohub,2013-07-22 01:51:00,
2013-07-21 20:56:00,65.3,64.9,22.06,West,270,0.0,0.0,99,0.00,,,0.00,meteohub,2013-07-22 01:56:00,
2013-07-21 21:02:00,65.1,64.8,22.06,SW,225,0.0,0.0,99,0.00,,,0.00,meteohub,2013-07-22 02:02:00,
2013-07-21 21:07:00,65.1,64.8,22.06,South,180,0.0,0.0,99,0.00,,,0.00,meteohub,2013-07-22 02:07:00,
2013-07-21 21:11:00,64.9,64.6,22.06,SE,135,0.0,0.0,99,0.00,,,0.00,meteohub,2013-07-22 02:11:00,
2013-07-21 21:16:00,64.8,64.4,22.06,SW,225,0.0,0.0,99,0.00,,,0.00,meteohub,2013-07-22 02:16:00,
2013-07-21 21:22:00,64.8,64.4,22.06,SE,135,0.0,0.0,99,0.00,,,0.00,meteohub,2013-07-22 02:22:00,
2013-07-21 21:27:00,64.6,64.2,22.06,SE,135,0.0,0.0,99,0.00,,,0.00,meteohub,2013-07-22 02:27:00,
2013-07-21 21:32:00,64.6,64.2,22.07,SE,135,0.0,0.0,99,0.00,,,0.00,meteohub,2013-07-22 02:32:00,
2013-07-21 21:37:00,64.6,64.2,22.07,SE,135,0.0,0.0,99,0.00,,,0.00,meteohub,2013-07-22 02:37:00,
2013-07-21 21:42:00,64.2,63.3,22.07,SW,225,1.0,0.0,97,0.00,,,0.00,meteohub,2013-07-22 02:42:00,
2013-07-21 21:47:00,64.2,63.3,22.07,East,90,1.0,2.0,97,0.00,,,0.00,meteohub,2013-07-22 02:47:00,
2013-07-21 21:51:00,64.0,63.1,22.06,SE,135,2.0,2.0,97,0.00,,,0.00,meteohub,2013-07-22 02:51:00,
2013-07-21 21:57:00,64.0,63.1,22.07,East,90,2.0,4.0,97,0.00,,,0.00,meteohub,2013-07-22 02:57:00,
2013-07-21 22:02:00,64.0,63.1,22.07,North,0,2.0,4.0,97,0.00,,,0.00,meteohub,2013-07-22 03:02:00,
2013-07-21 22:07:00,64.0,63.1,22.07,South,180,1.0,4.0,97,0.00,,,0.00,meteohub,2013-07-22 03:07:00,
2013-07-21 22:12:00,63.7,62.8,22.07,West,270,0.0,2.0,97,0.00,,,0.00,meteohub,2013-07-22 03:12:00,
2013-07-21 22:17:00,63.7,62.8,22.07,SW,225,0.0,2.0,97,0.00,,,0.00,meteohub,2013-07-22 03:17:00,
2013-07-21 22:22:00,63.5,62.6,22.08,SW,225,0.0,2.0,97,0.00,,,0.00,meteohub,2013-07-22 03:22:00,
2013-07-21 22:26:00,63.1,62.2,22.07,South,180,0.0,0.0,97,0.00,,,0.00,meteohub,2013-07-22 03:26:00,
2013-07-21 22:32:00,63.0,62.1,22.07,South,180,0.0,0.0,97,0.00,,,0.00,meteohub,2013-07-22 03:32:00,
2013-07-21 22:36:00,63.0,62.1,22.07,NE,45,0.0,0.0,97,0.00,,,0.00,meteohub,2013-07-22 03:36:00,
2013-07-21 22:42:00,62.8,61.9,22.07,NE,45,0.0,0.0,97,0.00,,,0.00,meteohub,2013-07-22 03:42:00,
2013-07-21 22:47:00,62.8,61.9,22.07,SW,225,2.0,0.0,97,0.00,,,0.00,meteohub,2013-07-22 03:47:00,
2013-07-21 22:52:00,62.6,61.7,22.07,SW,225,0.0,2.0,97,0.00,,,0.00,meteohub,2013-07-22 03:52:00,
2013-07-21 22:57:00,62.6,61.7,22.07,North,0,0.0,2.0,97,0.00,,,0.00,meteohub,2013-07-22 03:57:00,
2013-07-21 23:01:00,62.4,61.9,22.06,North,0,0.0,2.0,98,0.00,,,0.00,meteohub,2013-07-22 04:01:00,
2013-07-21 23:02:00,62.4,61.9,22.06,North,0,0.0,2.0,98,0.00,,,0.00,meteohub,2013-07-22 04:02:00,
2013-07-21 23:07:00,62.4,61.9,22.06,North,0,0.0,0.0,98,0.00,,,0.00,meteohub,2013-07-22 04:07:00,
2013-07-21 23:12:00,62.2,61.7,22.06,SW,225,0.0,0.0,98,0.00,,,0.00,meteohub,2013-07-22 04:12:00,
2013-07-21 23:17:00,62.1,61.5,22.06,NW,315,0.0,0.0,98,0.00,,,0.00,meteohub,2013-07-22 04:17:00,
2013-07-21 23:22:00,61.9,61.3,22.06,NW,315,0.0,0.0,98,0.00,,,0.00,meteohub,2013-07-22 04:22:00,
2013-07-21 23:27:00,61.7,61.2,22.06,NW,315,0.0,0.0,98,0.00,,,0.00,meteohub,2013-07-22 04:27:00,
2013-07-21 23:32:00,61.7,61.2,22.07,SW,225,0.0,0.0,98,0.00,,,0.00,meteohub,2013-07-22 04:32:00,
2013-07-21 23:37:00,61.7,61.2,22.06,West,270,0.0,0.0,98,0.00,,,0.00,meteohub,2013-07-22 04:37:00,
2013-07-21 23:42:00,61.7,61.2,22.06,NW,315,0.0,0.0,98,0.00,,,0.00,meteohub,2013-07-22 04:42:00,
2013-07-21 23:47:00,61.7,61.2,22.06,West,270,0.0,0.0,98,0.00,,,0.00,meteohub,2013-07-22 04:47:00,
2013-07-21 23:52:00,61.7,61.2,22.06,North,0,0.0,0.0,98,0.00,,,0.00,meteohub,2013-07-22 04:52:00,
2013-07-21 23:57:00,61.7,61.2,22.07,SW,225,0.0,0.0,98,0.00,,,0.00,meteohub,2013-07-22 04:57:00,